OPTUS A3 (AUSSAT 3)

导读 | 豆包AI

OPTUS A3(又名AUSSAT 3)是澳大利亚第一代澳普图斯系列国内通信卫星,由澳大利亚发起,于1987年9月16日发射入轨,定点于东经164°地球静止轨道。该卫星在轨质量566千克,设计工作寿命7年,搭载15台Ku频段转发器,主要服务澳大利亚本土通信广播需求,是澳大利亚早期自主卫星通信体系的重要组成部分,标志着澳卫星通信系统建设的初步完成。

基本信息
目录编号:
18350
目录名称:
OPTUS A3 (AUSSAT 3)
国际标识:
1987-078A
轨道中心:
EARTH
卫星名称:
OPTUS A3 (AUSSAT 3)
卫星全名:
--
卫星状态:
在轨 (已飞行14107 天)
发射日期:
1987-09-16 UTC
国别 :
澳大利亚 (AU)
星等 :
--
轨道信息
数据来源 国际轨道数据 AOE轨道数据
星历时间 2026-04-30T19:28:39+0800
14小时前
查看轨道信息
2026-04-30T13:00:00+0800
20小时前
查看轨道信息
半长轴 42551.609km 42551.839km
偏心率 0.000642 0.0006468
轨道倾角 14.400° 14.400°
近地点辐角 10.939° 11.857°
升交点赤经 351.583° 351.584°
平近点角 344.223° 247.203°
近地点 36146.153km 36146.179km
远地点 36200.791km 36201.225km
周期 1455.907分钟 1455.919分钟
每日圈数 0.989074 0.989066
详细信息
使用方式:
暂无
2D轨道图
3D轨道图
轨道高度分析图
轨道倾角分析图
轨道综合分析图
查看轨道综合分析图